Hourly Data Report for October 08, 2016

All times are specified in Local Standard Time (LST). Add 1 hour to adjust for Daylight Saving Time where and when it is observed.

GJOA HAVEN A
NUNAVUT

68°38'08.000" N
95°51'01.000" W
46.90 m
2302337
71597
YHK

Download Data

Hourly Data (October 2016)
Hourly Data Report for October 8, 2016
Temp Definition
°C
Dew Point Temp Definition
°C
Rel Hum Definition
%
Wind Dir Definition
10's deg

Wind Spd Definition
km/h
Visibility Definition
km
Stn Press Definition
kPa
Hmdx Definition


Wind Chill Definition


Weather Definition


TIME
00:00 Legend Double Dagger -2.4 -2.9 96 30 15 16.1 101.91   -7 Snow
01:00 Legend Double Dagger -2.3 -2.7 97 29 15 16.1 101.89   -7 Snow
02:00 Legend Double Dagger -2.3 -2.6 98 29 13 16.1 101.89   -7 Snow
03:00 Legend Double Dagger -2.3 -2.7 97 30 13 16.1 101.86   -7 Snow
04:00 Legend Double Dagger -2.2 -2.6 97 32 13 16.1 101.82   -7 Snow
05:00 Legend Double Dagger -2.2 -2.6 97 30 13 16.1 101.80   -7 Snow
06:00 Legend Double Dagger -2.3 -2.9 96 30 15 16.1 101.76   -7 Snow
07:00 Legend Double Dagger -2.5 -2.9 97 30 11 16.1 101.73   -7 Snow
08:00 Legend Double Dagger -2.3 -2.6 98 30 9 16.1 101.69   -6 Snow
09:00 Legend Double Dagger -2.2 -2.6 97 27 9 16.1 101.62   -6 Snow
10:00 Legend Double Dagger -1.9 -2.7 94 25 8 16.1 101.56   -5 Snow
11:00 Legend Double Dagger -1.4 -2.1 95 23 13 16.1 101.49   -6 Snow
12:00 Legend Double Dagger -1.1 -1.8 95 22 13 14.5 101.42   -5 Snow
13:00 Legend Double Dagger -1.0 -1.3 98 24 13 9.7 101.34   -5 Snow
14:00 Legend Double Dagger -2.0 -2.3 98 32 24 11.3 101.32   -8 Snow
15:00 Legend Double Dagger -3.1 -4.1 93 30 30 16.1 101.31   -11 LegendNANA
16:00 Legend Double Dagger -4.4 -5.1 95 29 21 16.1 101.29   -11 LegendNANA
17:00 Legend Double Dagger -4.3 -5.3 93 29 18 16.1 101.25   -10 LegendNANA
18:00 Legend Double Dagger -5.3 -6.1 94 31 22 16.1 101.21   -12 Snow
19:00 Legend Double Dagger -5.2 -5.9 95 32 26 16.1 101.20   -13 LegendNANA
20:00 Legend Double Dagger -4.4 -5.1 95 33 22 16.1 101.16   -11 LegendNANA
21:00 Legend Double Dagger -5.1 -5.4 98 30 21 14.5 101.15   -12 LegendNANA
22:00 Legend Double Dagger -4.3 -4.6 98 30 18 16.1 101.13   -10 LegendNANA
23:00 Legend Double Dagger -4.1 -4.4 98 30 15 4.0 101.12   -9 Snow

Notes on Data Quality.

Legend

  • E = Estimated
  • M = Missing
  • NA = Not Available
  • ‡ = Partner data that is not subject to review by the National Climate Archives
Date modified: